La Grande, OR

8:05 AM PST on December 10, 2019 (GMT -0800)
La Grande-Union County

Weather History for KLGD - September, 2019

Change the Weather History Date:

Saturday, September 7, 2019

  Actual Average Record
Temperature  
Mean Temperature 67 °F -  
Max Temperature 87 °F 75 °F 93 °F (1991)
Min Temperature 48 °F 44 °F 29 °F (1992)
Cooling Degree Days 2    
Growing Degree Days 17 (Base 50)    
Moisture  
Dew Point 50 °F    
Average Humidity 60    
Maximum Humidity 93    
Minimum Humidity 28    
Precipitation  
Precipitation 0.00 in - - ()
Sea Level Pressure  
Sea Level Pressure 30.41 in    
Wind  
Wind Speed 4 mph (South)    
Max Wind Speed 13 mph    
Max Gust Speed -    
Visibility 10 miles    
Events      
Averages and records for this station are not official NWS values.
T = Trace of Precipitation, MM = Missing Value Source: NWS Daily Summary

Daily Weather History Graph

Daily Weather History Graph

Search for Another Location

Airport or City:

Astronomy

Sep. 07, 2019 Rise Set
Actual Time 6:20 AM PDT 7:18 PM PDT
Civil Twilight 5:50 AM PDT 7:48 PM PDT
Nautical Twilight 5:14 AM PDT 8:24 PM PDT
Astronomical Twilight 4:36 AM PDT 9:01 PM PDT
Moon 3:52 PM PDT (9/7) 12:03 AM PDT (9/7)
Length of Visible Light 13h 57m
Length of Day
12h 57m
Waxing Gibbous, 67% of the Moon is Illuminated
Sep 7
Waxing Gibbous
Sep 13
Full
Sep 21
Last Quarter
Sep 28
New
Oct 5
First Quarter

Hourly Weather History & Observations

Time (PDT) Temp. Dew Point Humidity Pressure Visibility Wind Dir Wind Speed Gust Speed Precip Events Conditions
12:56 AM 57.0 °F 52.0 °F 83% 30.53 in 10.0 mi NNW 3.5 mph - N/A   Clear
1:56 AM 57.0 °F 51.1 °F 81% 30.53 in 10.0 mi WSW 3.5 mph - N/A   Clear
2:56 AM 55.9 °F 51.1 °F 84% 30.53 in 10.0 mi SSW 4.6 mph - N/A   Clear
3:56 AM 55.0 °F 51.1 °F 86% 30.53 in 10.0 mi West 4.6 mph - N/A   Clear
4:56 AM 55.0 °F 51.1 °F 86% 30.52 in 10.0 mi Calm Calm - N/A   Clear
5:56 AM 48.9 °F 46.9 °F 93% 30.54 in 10.0 mi Calm Calm - N/A   Clear
6:56 AM 51.1 °F 48.9 °F 92% 30.54 in 10.0 mi North - - N/A   Clear
7:56 AM 57.0 °F 53.1 °F 87% 30.54 in 10.0 mi NE 4.6 mph - N/A   Clear
8:56 AM 57.9 °F 54.0 °F 87% 30.54 in 10.0 mi NNW 3.5 mph - N/A   Clear
9:56 AM 63.0 °F 55.0 °F 75% 30.51 in 10.0 mi Calm Calm - N/A   Clear
10:56 AM 66.9 °F 55.0 °F 66% 30.49 in 10.0 mi NNE 3.5 mph - N/A   Clear
11:56 AM 75.0 °F 55.0 °F 50% 30.45 in 10.0 mi Variable 5.8 mph - N/A   Clear
12:56 PM 79.0 °F 55.0 °F 44% 30.42 in 10.0 mi Variable 4.6 mph - N/A   Clear
1:56 PM 82.9 °F 52.0 °F 34% 30.38 in 10.0 mi Calm Calm - N/A   Clear
2:56 PM 86.0 °F 48.9 °F 28% 30.35 in 10.0 mi SE 11.5 mph - N/A   Clear
3:56 PM 86.0 °F 48.9 °F 28% 30.32 in 10.0 mi SE 12.7 mph - N/A   Clear
4:56 PM 84.0 °F 50.0 °F 31% 30.30 in 10.0 mi SSE 8.1 mph - N/A   Clear
5:56 PM 82.0 °F 48.0 °F 30% 30.27 in 10.0 mi SSE 8.1 mph - N/A   Clear
6:56 PM 79.0 °F 48.0 °F 34% 30.27 in 10.0 mi ESE 8.1 mph - N/A   Clear
7:56 PM 75.0 °F 46.9 °F 37% 30.26 in 10.0 mi South 4.6 mph - N/A   Clear
8:56 PM 75.0 °F 46.0 °F 36% 30.26 in 10.0 mi Variable 3.5 mph - N/A   Clear
9:56 PM 66.9 °F 48.0 °F 51% 30.24 in 10.0 mi WNW 5.8 mph - N/A   Clear
10:56 PM 64.9 °F 48.0 °F 54% 30.23 in 10.0 mi South 6.9 mph - N/A   Clear
11:56 PM 63.0 °F 46.9 °F 56% 30.23 in 10.0 mi South 8.1 mph - N/A   Clear